User: anonymous   Login
Location: Newark
(48.1500°N, 13.1167°E)
Time: 22:36:16
(UTC+00:00)
Language:

Gurwin Techsat 1B - Orbit

View from above orbital plane
View from above orbital plane
View from above satellite
View from above satellite

Ground track
Ground track

The orbit data is extracted from the following two-line orbital elements,

1 25397U 98043D   21335.45765769  .00000003  00000-0  20896-4 0  9995
2 25397  98.7921 280.6942 0001080  13.5797 346.5410 14.23723231215252
Epoch (UTC): 01 December 2021 10:59:01
Eccentricity: 0.0001080
inclination: 98.7921°
perigee height: 812 km
apogee height: 813 km
right ascension of ascending node: 280.6942°
argument of perigee: 13.5797°
revolutions per day: 14.23723231
mean anomaly at epoch: 346.5410°
orbit number at epoch: 21525

The dashed part of the orbit path shows where the satellite is in the earth's shadow,  

DLR